Year,Month,Day,Hour,Minute,Value (Times are PST for temperature in C)
2008,08,13,00,00,15.30
2008,08,13,00,01,15.30
2008,08,13,00,02,15.30
2008,08,13,00,03,15.30
2008,08,13,00,04,15.30
2008,08,13,00,05,15.30
2008,08,13,00,06,15.30
2008,08,13,00,07,15.30
2008,08,13,00,08,15.30
2008,08,13,00,09,15.30
2008,08,13,00,10,15.30
2008,08,13,00,11,15.30
2008,08,13,00,12,15.30
2008,08,13,00,13,15.30
2008,08,13,00,14,15.30
2008,08,13,00,15,15.30
2008,08,13,00,16,15.30
2008,08,13,00,17,15.30
2008,08,13,00,18,15.30
2008,08,13,00,19,15.40
2008,08,13,00,20,15.40
2008,08,13,00,21,15.40
2008,08,13,00,22,15.40
2008,08,13,00,23,15.50
2008,08,13,00,24,15.50
2008,08,13,00,25,15.50
2008,08,13,00,26,15.50
2008,08,13,00,27,15.50
2008,08,13,00,28,15.50
2008,08,13,00,29,15.50
2008,08,13,00,30,15.50
2008,08,13,00,31,15.50
2008,08,13,00,32,15.50
2008,08,13,00,33,15.50
2008,08,13,00,34,15.50
2008,08,13,00,35,15.50
2008,08,13,00,36,15.50
2008,08,13,00,37,15.50
2008,08,13,00,38,15.50
2008,08,13,00,39,15.50
2008,08,13,00,40,15.50
2008,08,13,00,41,15.50
2008,08,13,00,42,15.50
2008,08,13,00,43,15.50
2008,08,13,00,44,15.50
2008,08,13,00,45,15.40
2008,08,13,00,46,15.40
2008,08,13,00,47,15.40
2008,08,13,00,48,15.40
2008,08,13,00,49,15.40
2008,08,13,00,50,15.40
2008,08,13,00,51,15.40
2008,08,13,00,52,15.40
2008,08,13,00,53,15.40
2008,08,13,00,54,15.40
2008,08,13,00,55,15.40
2008,08,13,00,56,15.40
2008,08,13,00,57,15.40
2008,08,13,00,58,15.50
2008,08,13,00,59,15.50
2008,08,13,01,00,15.50
2008,08,13,01,01,15.50
2008,08,13,01,02,15.50
2008,08,13,01,03,15.50
2008,08,13,01,04,15.60
2008,08,13,01,05,15.60
2008,08,13,01,06,15.60
2008,08,13,01,07,15.60
2008,08,13,01,08,15.70
2008,08,13,01,09,15.70
2008,08,13,01,10,15.70
2008,08,13,01,11,15.60
2008,08,13,01,12,15.60
2008,08,13,01,13,15.60
2008,08,13,01,14,15.60
2008,08,13,01,15,15.60
2008,08,13,01,16,15.60
2008,08,13,01,17,15.60
2008,08,13,01,18,15.60
2008,08,13,01,19,15.50
2008,08,13,01,20,15.50
2008,08,13,01,21,15.50
2008,08,13,01,22,15.50
2008,08,13,01,23,15.50
2008,08,13,01,24,15.50
2008,08,13,01,25,15.50
2008,08,13,01,26,15.50
2008,08,13,01,27,15.50
2008,08,13,01,28,15.50
2008,08,13,01,29,15.50
2008,08,13,01,30,15.50
2008,08,13,01,31,15.50
2008,08,13,01,32,15.50
2008,08,13,01,33,15.50
2008,08,13,01,34,15.50
2008,08,13,01,35,15.50
2008,08,13,01,36,15.50
2008,08,13,01,37,15.50
2008,08,13,01,38,15.50
2008,08,13,01,39,15.50
2008,08,13,01,40,15.50
2008,08,13,01,41,15.50
2008,08,13,01,42,15.50
2008,08,13,01,43,15.50
2008,08,13,01,44,15.50
2008,08,13,01,45,15.50
2008,08,13,01,46,15.50
2008,08,13,01,47,15.50
2008,08,13,01,48,15.50
2008,08,13,01,49,15.50
2008,08,13,01,50,15.50
2008,08,13,01,51,15.50
2008,08,13,01,52,15.50
2008,08,13,01,53,15.50
2008,08,13,01,54,15.50
2008,08,13,01,55,15.40
2008,08,13,01,56,15.40
2008,08,13,01,57,15.40
2008,08,13,01,58,15.40
2008,08,13,01,59,15.40
2008,08,13,02,00,15.40
2008,08,13,02,01,15.40
2008,08,13,02,02,15.40
2008,08,13,02,03,15.40
2008,08,13,02,04,15.40
2008,08,13,02,05,15.40
2008,08,13,02,06,15.40
2008,08,13,02,07,15.40
2008,08,13,02,08,15.40
2008,08,13,02,09,15.40
2008,08,13,02,10,15.40
2008,08,13,02,11,15.40
2008,08,13,02,12,15.40
2008,08,13,02,13,15.40
2008,08,13,02,14,15.40
2008,08,13,02,15,15.40
2008,08,13,02,16,15.40
2008,08,13,02,17,15.40
2008,08,13,02,18,15.40
2008,08,13,02,19,15.40
2008,08,13,02,20,15.40
2008,08,13,02,21,15.40
2008,08,13,02,22,15.40
2008,08,13,02,23,15.40
2008,08,13,02,24,15.40
2008,08,13,02,25,15.40
2008,08,13,02,26,15.40
2008,08,13,02,27,15.40
2008,08,13,02,28,15.40
2008,08,13,02,29,15.40
2008,08,13,02,30,15.40
2008,08,13,02,31,15.50
2008,08,13,02,32,15.50
2008,08,13,02,33,15.50
2008,08,13,02,34,15.50
2008,08,13,02,35,15.50
2008,08,13,02,36,15.50
2008,08,13,02,37,15.50
2008,08,13,02,38,15.50
2008,08,13,02,39,15.50
2008,08,13,02,40,15.50
2008,08,13,02,41,15.50
2008,08,13,02,42,15.50
2008,08,13,02,43,15.50
2008,08,13,02,44,15.50
2008,08,13,02,45,15.50
2008,08,13,02,46,15.50
2008,08,13,02,47,15.50
2008,08,13,02,48,15.40
2008,08,13,02,49,15.40
2008,08,13,02,50,15.40
2008,08,13,02,51,15.40
2008,08,13,02,52,15.40
2008,08,13,02,53,15.40
2008,08,13,02,54,15.40
2008,08,13,02,55,15.40
2008,08,13,02,56,15.40
2008,08,13,02,57,15.40
2008,08,13,02,58,15.40
2008,08,13,02,59,15.40
2008,08,13,03,00,15.40
2008,08,13,03,01,15.40
2008,08,13,03,02,15.40
2008,08,13,03,03,15.40
2008,08,13,03,04,15.40
2008,08,13,03,05,15.40
2008,08,13,03,06,15.40
2008,08,13,03,07,15.40
2008,08,13,03,08,15.40
2008,08,13,03,09,15.40
2008,08,13,03,10,15.40
2008,08,13,03,11,15.40
2008,08,13,03,12,15.40
2008,08,13,03,13,15.40
2008,08,13,03,14,15.40
2008,08,13,03,15,15.40
2008,08,13,03,16,15.40
2008,08,13,03,17,15.50
2008,08,13,03,18,15.50
2008,08,13,03,19,15.50
2008,08,13,03,20,15.50
2008,08,13,03,21,15.50
2008,08,13,03,22,15.50
2008,08,13,03,23,15.50
2008,08,13,03,24,15.50
2008,08,13,03,25,15.50
2008,08,13,03,26,15.50
2008,08,13,03,27,15.50
2008,08,13,03,28,15.50
2008,08,13,03,29,15.50
2008,08,13,03,30,15.50
2008,08,13,03,31,15.50
2008,08,13,03,32,15.50
2008,08,13,03,33,15.50
2008,08,13,03,34,15.40
2008,08,13,03,35,15.40
2008,08,13,03,36,15.40
2008,08,13,03,37,15.30
2008,08,13,03,38,15.30
2008,08,13,03,39,15.30
2008,08,13,03,40,15.30
2008,08,13,03,41,15.30
2008,08,13,03,42,15.30
2008,08,13,03,43,15.30
2008,08,13,03,44,15.30
2008,08,13,03,45,15.30
2008,08,13,03,46,15.30
2008,08,13,03,47,15.30
2008,08,13,03,48,15.30
2008,08,13,03,49,15.30
2008,08,13,03,50,15.30
2008,08,13,03,51,15.30
2008,08,13,03,52,15.30
2008,08,13,03,53,15.30
2008,08,13,03,54,15.30
2008,08,13,03,55,15.40
2008,08,13,03,56,15.40
2008,08,13,03,57,15.40
2008,08,13,03,58,15.40
2008,08,13,03,59,15.40
2008,08,13,04,00,15.40
2008,08,13,04,01,15.40
2008,08,13,04,02,15.40
2008,08,13,04,03,15.40
2008,08,13,04,04,15.40
2008,08,13,04,05,15.40
2008,08,13,04,06,15.40
2008,08,13,04,07,15.40
2008,08,13,04,08,15.40
2008,08,13,04,09,15.30
2008,08,13,04,10,15.30
2008,08,13,04,11,15.30
2008,08,13,04,12,15.30
2008,08,13,04,13,15.30
2008,08,13,04,14,15.30
2008,08,13,04,15,15.30
2008,08,13,04,16,15.30
2008,08,13,04,17,15.30
2008,08,13,04,18,15.30
2008,08,13,04,19,15.30
2008,08,13,04,20,15.30
2008,08,13,04,21,15.30
2008,08,13,04,22,15.30
2008,08,13,04,23,15.30
2008,08,13,04,24,15.30
2008,08,13,04,25,15.30
2008,08,13,04,26,15.30
2008,08,13,04,27,15.30
2008,08,13,04,28,15.30
2008,08,13,04,29,15.30
2008,08,13,04,30,15.30
2008,08,13,04,31,15.30
2008,08,13,04,32,15.30
2008,08,13,04,33,15.20
2008,08,13,04,34,15.20
2008,08,13,04,35,15.20
2008,08,13,04,36,15.20
2008,08,13,04,37,15.10
2008,08,13,04,38,15.10
2008,08,13,04,39,15.10
2008,08,13,04,40,15.10
2008,08,13,04,41,15.10
2008,08,13,04,42,15.10
2008,08,13,04,43,15.10
2008,08,13,04,44,15.10
2008,08,13,04,45,15.10
2008,08,13,04,46,15.10
2008,08,13,04,47,15.10
2008,08,13,04,48,15.00
2008,08,13,04,49,15.00
2008,08,13,04,50,15.00
2008,08,13,04,51,15.00
2008,08,13,04,52,15.00
2008,08,13,04,53,15.00
2008,08,13,04,54,15.00
2008,08,13,04,55,15.00
2008,08,13,04,56,15.00
2008,08,13,04,57,15.00
2008,08,13,04,58,15.00
2008,08,13,04,59,15.00
2008,08,13,05,00,15.00
2008,08,13,05,01,15.00
2008,08,13,05,02,15.00
2008,08,13,05,03,14.90
2008,08,13,05,04,14.90
2008,08,13,05,05,14.80
2008,08,13,05,06,14.80
2008,08,13,05,07,14.80
2008,08,13,05,08,14.70
2008,08,13,05,09,14.70
2008,08,13,05,10,14.60
2008,08,13,05,11,14.60
2008,08,13,05,12,14.60
2008,08,13,05,13,14.50
2008,08,13,05,14,14.50
2008,08,13,05,15,14.50
2008,08,13,05,16,14.50
2008,08,13,05,17,14.50
2008,08,13,05,18,14.50
2008,08,13,05,19,14.50
2008,08,13,05,20,14.50
2008,08,13,05,21,14.50
2008,08,13,05,22,14.50
2008,08,13,05,23,14.40
2008,08,13,05,24,14.40
2008,08,13,05,25,14.40
2008,08,13,05,26,14.40
2008,08,13,05,27,14.40
2008,08,13,05,28,14.30
2008,08,13,05,29,14.30
2008,08,13,05,30,14.30
2008,08,13,05,31,14.40
2008,08,13,05,32,14.40
2008,08,13,05,33,14.40
2008,08,13,05,34,14.40
2008,08,13,05,35,14.40
2008,08,13,05,36,14.40
2008,08,13,05,37,14.40
2008,08,13,05,38,14.40
2008,08,13,05,39,14.30
2008,08,13,05,40,14.30
2008,08,13,05,41,14.20
2008,08,13,05,42,14.20
2008,08,13,05,43,14.20
2008,08,13,05,44,14.20
2008,08,13,05,45,14.20
2008,08,13,05,46,14.20
2008,08,13,05,47,14.20
2008,08,13,05,48,14.20
2008,08,13,05,49,14.20
2008,08,13,05,50,14.10
2008,08,13,05,51,14.10
2008,08,13,05,52,14.10
2008,08,13,05,53,14.10
2008,08,13,05,54,14.10
2008,08,13,05,55,14.10
2008,08,13,05,56,14.00
2008,08,13,05,57,14.00
2008,08,13,05,58,14.00
2008,08,13,05,59,14.00
2008,08,13,06,00,14.00
2008,08,13,06,01,14.00
2008,08,13,06,02,14.00
2008,08,13,06,03,14.00
2008,08,13,06,04,14.00
2008,08,13,06,05,14.00
2008,08,13,06,06,14.00
2008,08,13,06,07,14.00
2008,08,13,06,08,14.00
2008,08,13,06,09,14.00
2008,08,13,06,10,14.00
2008,08,13,06,11,14.00
2008,08,13,06,12,13.90
2008,08,13,06,13,13.90
2008,08,13,06,14,13.90
2008,08,13,06,15,13.90
2008,08,13,06,16,13.90
2008,08,13,06,17,13.90
2008,08,13,06,18,13.90
2008,08,13,06,19,13.90
2008,08,13,06,20,13.90
2008,08,13,06,21,13.90
2008,08,13,06,22,13.90
2008,08,13,06,23,13.90
2008,08,13,06,24,13.90
2008,08,13,06,25,13.90
2008,08,13,06,26,13.90
2008,08,13,06,27,13.90
2008,08,13,06,28,13.90
2008,08,13,06,29,13.90
2008,08,13,06,30,13.90
2008,08,13,06,31,13.80
2008,08,13,06,32,13.80
2008,08,13,06,33,13.80
2008,08,13,06,34,13.80
2008,08,13,06,35,13.80
2008,08,13,06,36,13.80
2008,08,13,06,37,13.80
2008,08,13,06,38,13.80
2008,08,13,06,39,13.80
2008,08,13,06,40,13.70
2008,08,13,06,41,13.70
2008,08,13,06,42,13.70
2008,08,13,06,43,13.70
2008,08,13,06,44,13.70
2008,08,13,06,45,13.70
2008,08,13,06,46,13.70
2008,08,13,06,47,13.70
2008,08,13,06,48,13.70
2008,08,13,06,49,13.80
2008,08,13,06,50,13.80
2008,08,13,06,51,13.80
2008,08,13,06,52,13.90
2008,08,13,06,53,13.90
2008,08,13,06,54,13.90
2008,08,13,06,55,14.00
2008,08,13,06,56,14.10
2008,08,13,06,57,14.10
2008,08,13,06,58,14.20
2008,08,13,06,59,14.20
2008,08,13,07,00,14.20
2008,08,13,07,01,14.20
2008,08,13,07,02,14.20
2008,08,13,07,03,14.30
2008,08,13,07,04,14.30
2008,08,13,07,05,14.30
2008,08,13,07,06,14.30
2008,08,13,07,07,14.30
2008,08,13,07,08,14.40
2008,08,13,07,09,14.50
2008,08,13,07,10,14.50
2008,08,13,07,11,14.50
2008,08,13,07,12,14.50
2008,08,13,07,13,14.60
2008,08,13,07,14,14.60
2008,08,13,07,15,14.60
2008,08,13,07,16,14.70
2008,08,13,07,17,14.80
2008,08,13,07,18,14.80
2008,08,13,07,19,14.80
2008,08,13,07,20,14.80
2008,08,13,07,21,14.80
2008,08,13,07,22,14.80
2008,08,13,07,23,14.80
2008,08,13,07,24,14.80
2008,08,13,07,25,14.80
2008,08,13,07,26,14.90
2008,08,13,07,27,15.10
2008,08,13,07,28,15.10
2008,08,13,07,29,15.10
2008,08,13,07,30,15.20
2008,08,13,07,31,15.20
2008,08,13,07,32,15.30
2008,08,13,07,33,15.30
2008,08,13,07,34,15.30
2008,08,13,07,35,15.30
2008,08,13,07,36,15.30
2008,08,13,08,40,17.90
2008,08,13,08,41,17.90
2008,08,13,08,42,17.90
2008,08,13,08,43,17.90
2008,08,13,08,44,18.00
2008,08,13,08,45,18.10
2008,08,13,08,46,18.10
2008,08,13,08,47,18.10
2008,08,13,08,48,18.10
2008,08,13,08,49,18.20
2008,08,13,08,50,18.20
2008,08,13,08,51,18.20
2008,08,13,08,52,18.20
2008,08,13,08,53,18.20
2008,08,13,08,54,18.20
2008,08,13,08,55,18.30
2008,08,13,08,56,18.30
2008,08,13,08,57,18.30
2008,08,13,08,58,18.30
2008,08,13,08,59,18.30
2008,08,13,09,00,18.60
2008,08,13,09,01,18.70
2008,08,13,09,02,18.80
2008,08,13,09,03,18.90
2008,08,13,09,04,18.90
2008,08,13,09,05,18.90
2008,08,13,09,06,18.90
2008,08,13,09,07,18.90
2008,08,13,09,08,19.00
2008,08,13,09,09,19.10
2008,08,13,09,10,19.10
2008,08,13,09,11,19.10
2008,08,13,09,12,19.10
2008,08,13,09,13,19.10
2008,08,13,09,14,19.10
2008,08,13,09,15,19.10
2008,08,13,09,16,19.10
2008,08,13,09,17,19.10
2008,08,13,09,18,19.20
2008,08,13,09,19,19.30
2008,08,13,09,20,19.40
2008,08,13,09,21,19.50
2008,08,13,09,22,19.60
2008,08,13,09,23,19.70
2008,08,13,09,24,19.80
2008,08,13,09,25,19.90
2008,08,13,09,26,19.90
2008,08,13,09,27,20.10
2008,08,13,09,28,20.20
2008,08,13,09,29,20.20
2008,08,13,09,30,20.30
2008,08,13,09,31,20.40
2008,08,13,09,32,20.50
2008,08,13,09,33,20.50
2008,08,13,09,34,20.60
2008,08,13,09,35,20.60
2008,08,13,09,36,20.70
2008,08,13,09,37,20.70
2008,08,13,09,38,20.80
2008,08,13,09,39,20.80
2008,08,13,09,40,20.80
2008,08,13,09,41,20.80
2008,08,13,09,42,20.80
2008,08,13,09,43,20.80
2008,08,13,09,44,20.80
2008,08,13,09,45,20.80
2008,08,13,09,46,20.70
2008,08,13,09,47,20.60
2008,08,13,09,48,20.60
2008,08,13,09,49,20.60
2008,08,13,09,50,20.70
2008,08,13,09,51,20.70
2008,08,13,09,52,20.70
2008,08,13,09,53,20.80
2008,08,13,09,54,20.80
2008,08,13,09,55,20.90
2008,08,13,09,56,21.00
2008,08,13,09,57,21.00
2008,08,13,09,58,21.10
2008,08,13,09,59,21.10
2008,08,13,10,00,21.10
2008,08,13,10,01,21.00
2008,08,13,10,02,21.00
2008,08,13,10,03,20.90
2008,08,13,10,04,20.90
2008,08,13,10,05,20.90
2008,08,13,10,06,21.00
2008,08,13,10,07,21.10
2008,08,13,10,08,21.20
2008,08,13,10,09,21.30
2008,08,13,10,10,21.40
2008,08,13,10,11,21.40
2008,08,13,10,12,21.50
2008,08,13,10,13,21.60
2008,08,13,10,14,21.50
2008,08,13,10,15,21.30
2008,08,13,10,16,21.30
2008,08,13,10,17,21.30
2008,08,13,10,18,21.10
2008,08,13,10,19,21.00
2008,08,13,10,20,21.00
2008,08,13,10,21,21.00
2008,08,13,10,22,21.00
2008,08,13,10,23,21.10
2008,08,13,10,24,21.20
2008,08,13,10,25,21.20
2008,08,13,10,26,21.30
2008,08,13,10,27,21.30
2008,08,13,10,28,21.30
2008,08,13,10,29,21.30
2008,08,13,10,30,21.30
2008,08,13,10,31,21.30
2008,08,13,10,32,21.30
2008,08,13,10,33,21.40
2008,08,13,10,34,21.40
2008,08,13,10,35,21.40
2008,08,13,10,36,21.40
2008,08,13,10,37,21.30
2008,08,13,10,38,21.30
2008,08,13,10,39,21.20
2008,08,13,10,40,21.20
2008,08,13,10,41,21.20
2008,08,13,10,42,21.20
2008,08,13,10,43,21.20
2008,08,13,10,44,21.30
2008,08,13,10,45,21.30
2008,08,13,10,46,21.30
2008,08,13,10,47,21.30
2008,08,13,10,48,21.30
2008,08,13,10,49,21.30
2008,08,13,10,50,21.30
2008,08,13,10,51,21.30
2008,08,13,10,52,21.40
2008,08,13,10,53,21.40
2008,08,13,10,54,21.30
2008,08,13,10,55,21.30
2008,08,13,10,56,21.30
2008,08,13,10,57,21.30
2008,08,13,10,58,21.30
2008,08,13,10,59,21.30
2008,08,13,11,00,21.30
2008,08,13,11,01,21.30
2008,08,13,11,02,21.30
2008,08,13,11,03,21.40
2008,08,13,11,04,21.40
2008,08,13,11,05,21.50
2008,08,13,11,06,21.60
2008,08,13,11,07,21.60
2008,08,13,11,08,21.60
2008,08,13,11,09,21.60
2008,08,13,11,10,21.60
2008,08,13,11,11,21.70
2008,08,13,11,12,21.80
2008,08,13,11,13,21.90
2008,08,13,11,14,22.00
2008,08,13,11,15,22.10
2008,08,13,11,16,22.20
2008,08,13,11,17,22.20
2008,08,13,11,18,22.20
2008,08,13,11,19,22.20
2008,08,13,11,20,22.20
2008,08,13,11,21,22.20
2008,08,13,11,22,22.20
2008,08,13,11,23,22.20
2008,08,13,11,24,22.20
2008,08,13,11,25,22.20
2008,08,13,11,26,22.20
2008,08,13,11,27,22.20
2008,08,13,11,28,22.10
2008,08,13,11,29,22.00
2008,08,13,11,30,21.90
2008,08,13,11,31,21.80
2008,08,13,11,32,21.80
2008,08,13,11,33,21.80
2008,08,13,11,34,21.70
2008,08,13,11,35,21.70
2008,08,13,11,36,21.70
2008,08,13,11,37,21.80
2008,08,13,11,38,21.80
2008,08,13,11,39,21.90
2008,08,13,11,40,21.90
2008,08,13,11,41,21.80
2008,08,13,11,42,21.80
2008,08,13,11,43,21.90
2008,08,13,11,44,22.00
2008,08,13,11,45,22.00
2008,08,13,11,46,22.10
2008,08,13,11,47,22.20
2008,08,13,11,48,22.40
2008,08,13,11,49,22.40
2008,08,13,11,50,22.40
2008,08,13,11,51,22.40
2008,08,13,11,52,22.50
2008,08,13,11,53,22.60
2008,08,13,11,54,22.60
2008,08,13,11,55,22.60
2008,08,13,11,56,22.70
2008,08,13,11,57,22.70
2008,08,13,11,58,22.80
2008,08,13,11,59,22.70
2008,08,13,12,00,22.70
2008,08,13,12,01,22.80
2008,08,13,12,02,22.80
2008,08,13,12,03,22.90
2008,08,13,12,04,22.90
2008,08,13,12,05,22.90
2008,08,13,12,06,22.90
2008,08,13,12,07,22.90
2008,08,13,12,08,22.80
2008,08,13,12,09,22.60
2008,08,13,12,10,22.50
2008,08,13,12,11,22.30
2008,08,13,12,12,22.20
2008,08,13,12,13,22.10
2008,08,13,12,14,22.10
2008,08,13,12,15,22.10
2008,08,13,12,16,22.00
2008,08,13,12,17,22.00
2008,08,13,12,18,22.00
2008,08,13,12,19,21.90
2008,08,13,12,20,21.90
2008,08,13,12,21,21.80
2008,08,13,12,22,21.90
2008,08,13,12,23,22.00
2008,08,13,12,24,22.00
2008,08,13,12,25,22.00
2008,08,13,12,26,22.00
2008,08,13,12,27,22.10
2008,08,13,12,28,22.10
2008,08,13,12,29,22.10
2008,08,13,12,30,22.10
2008,08,13,12,31,22.20
2008,08,13,12,32,22.30
2008,08,13,12,33,22.20
2008,08,13,12,34,22.20
2008,08,13,12,35,22.10
2008,08,13,12,36,22.10
2008,08,13,12,37,22.10
2008,08,13,12,38,22.00
2008,08,13,12,39,21.90
2008,08,13,12,40,21.80
2008,08,13,12,41,21.90
2008,08,13,12,42,22.00
2008,08,13,12,43,22.00
2008,08,13,12,44,22.10
2008,08,13,12,45,22.10
2008,08,13,12,46,22.20
2008,08,13,12,47,22.10
2008,08,13,12,48,22.00
2008,08,13,12,49,21.80
2008,08,13,12,50,21.70
2008,08,13,12,51,21.60
2008,08,13,12,52,21.60
2008,08,13,12,53,21.60
2008,08,13,12,54,21.60
2008,08,13,12,55,21.70
2008,08,13,12,56,21.80
2008,08,13,12,57,21.90
2008,08,13,12,58,21.90
2008,08,13,12,59,21.80
2008,08,13,13,00,21.70
2008,08,13,13,01,21.70
2008,08,13,13,02,21.80
2008,08,13,13,03,21.90
2008,08,13,13,04,22.10
2008,08,13,13,05,22.20
2008,08,13,13,06,22.30
2008,08,13,13,07,22.40
2008,08,13,13,08,22.40
2008,08,13,13,09,22.40
2008,08,13,13,10,22.50
2008,08,13,13,11,22.40
2008,08,13,13,12,22.30
2008,08,13,13,13,22.30
2008,08,13,13,14,22.30
2008,08,13,13,15,22.30
2008,08,13,13,16,22.30
2008,08,13,13,17,22.30
2008,08,13,13,18,22.30
2008,08,13,13,19,22.30
2008,08,13,13,20,22.30
2008,08,13,13,21,22.00
2008,08,13,13,22,21.40
2008,08,13,13,23,21.30
2008,08,13,13,24,21.30
2008,08,13,13,25,21.50
2008,08,13,13,26,21.70
2008,08,13,13,27,21.80
2008,08,13,13,28,22.00
2008,08,13,13,29,22.00
2008,08,13,13,30,21.90
2008,08,13,13,31,21.80
2008,08,13,13,32,21.90
2008,08,13,13,33,22.00
2008,08,13,13,34,22.10
2008,08,13,13,35,22.10
2008,08,13,13,36,22.00
2008,08,13,13,37,21.80
2008,08,13,13,38,21.70
2008,08,13,13,39,21.60
2008,08,13,13,40,21.70
2008,08,13,13,41,21.80
2008,08,13,13,42,21.90
2008,08,13,13,43,22.10
2008,08,13,13,44,22.20
2008,08,13,13,45,22.40
2008,08,13,13,46,22.60
2008,08,13,13,47,22.60
2008,08,13,13,48,22.60
2008,08,13,13,49,22.50
2008,08,13,13,50,22.40
2008,08,13,13,51,22.40
2008,08,13,13,52,22.50
2008,08,13,13,53,22.50
2008,08,13,13,54,22.50
2008,08,13,13,55,22.50
2008,08,13,13,56,22.50
2008,08,13,13,57,22.40
2008,08,13,13,58,22.50
2008,08,13,13,59,22.50
2008,08,13,14,00,22.60
2008,08,13,14,01,22.60
2008,08,13,14,02,22.70
2008,08,13,14,03,22.70
2008,08,13,14,04,22.80
2008,08,13,14,05,22.90
2008,08,13,14,06,22.90
2008,08,13,14,07,23.10
2008,08,13,14,08,22.90
2008,08,13,14,09,22.80
2008,08,13,14,10,22.60
2008,08,13,14,11,22.60
2008,08,13,14,12,22.60
2008,08,13,14,13,22.60
2008,08,13,14,14,22.60
2008,08,13,14,15,22.70
2008,08,13,14,16,22.70
2008,08,13,14,17,22.80
2008,08,13,14,18,22.80
2008,08,13,14,19,22.90
2008,08,13,14,20,22.90
2008,08,13,14,21,22.90
2008,08,13,14,22,22.90
2008,08,13,14,23,22.90
2008,08,13,14,24,23.10
2008,08,13,14,25,23.20
2008,08,13,14,26,23.30
2008,08,13,14,27,23.30
2008,08,13,14,28,23.30
2008,08,13,14,29,23.30
2008,08,13,14,30,23.30
2008,08,13,14,31,23.30
2008,08,13,14,32,23.30
2008,08,13,14,33,23.30
2008,08,13,14,34,23.30
2008,08,13,14,35,23.40
2008,08,13,14,36,23.50
2008,08,13,14,37,23.60
2008,08,13,14,38,23.70
2008,08,13,14,39,23.70
2008,08,13,14,40,23.70
2008,08,13,14,41,23.70
2008,08,13,14,42,23.70
2008,08,13,14,43,23.90
2008,08,13,14,44,23.90
2008,08,13,14,45,23.90
2008,08,13,14,46,23.90
2008,08,13,14,47,23.90
2008,08,13,14,48,23.70
2008,08,13,14,49,23.50
2008,08,13,14,50,23.40
2008,08,13,14,51,23.20
2008,08,13,14,52,23.10
2008,08,13,14,53,22.90
2008,08,13,14,54,23.00
2008,08,13,14,55,23.10
2008,08,13,14,56,23.10
2008,08,13,14,57,23.10
2008,08,13,14,58,23.20
2008,08,13,14,59,23.20
2008,08,13,15,00,23.20
2008,08,13,15,01,23.10
2008,08,13,15,02,23.20
2008,08,13,15,03,23.20
2008,08,13,15,04,23.20
2008,08,13,15,05,23.30
2008,08,13,15,06,23.40
2008,08,13,15,07,23.60
2008,08,13,15,08,23.60
2008,08,13,15,09,23.60
2008,08,13,15,10,23.60
2008,08,13,15,11,23.60
2008,08,13,15,12,23.60
2008,08,13,15,13,23.60
2008,08,13,15,14,23.70
2008,08,13,15,15,23.70
2008,08,13,15,16,23.70
2008,08,13,15,17,23.60
2008,08,13,15,18,23.30
2008,08,13,15,19,23.30
2008,08,13,15,20,23.30
2008,08,13,15,21,23.30
2008,08,13,15,22,23.30
2008,08,13,15,23,23.30
2008,08,13,15,24,23.30
2008,08,13,15,25,23.30
2008,08,13,15,26,23.20
2008,08,13,15,27,23.10
2008,08,13,15,28,23.00
2008,08,13,15,29,22.90
2008,08,13,15,30,22.90
2008,08,13,15,31,22.90
2008,08,13,15,32,22.90
2008,08,13,15,33,22.90
2008,08,13,15,34,23.00
2008,08,13,15,35,23.10
2008,08,13,15,36,23.20
2008,08,13,15,37,23.20
2008,08,13,15,38,23.30
2008,08,13,15,39,23.20
2008,08,13,15,40,23.10
2008,08,13,15,41,22.90
2008,08,13,15,42,22.80
2008,08,13,15,43,22.80
2008,08,13,15,44,22.90
2008,08,13,15,45,22.90
2008,08,13,15,46,23.10
2008,08,13,15,47,23.10
2008,08,13,15,48,23.20
2008,08,13,15,49,23.30
2008,08,13,15,50,23.40
2008,08,13,15,51,23.60
2008,08,13,15,52,23.70
2008,08,13,15,53,23.80
2008,08,13,15,54,23.70
2008,08,13,15,55,23.70
2008,08,13,15,56,23.70
2008,08,13,15,57,23.70
2008,08,13,15,58,23.70
2008,08,13,15,59,23.60
2008,08,13,16,00,23.60
2008,08,13,16,01,23.60
2008,08,13,16,02,23.60
2008,08,13,16,03,23.70
2008,08,13,16,04,23.70
2008,08,13,16,05,23.80
2008,08,13,16,06,23.80
2008,08,13,16,07,23.80
2008,08,13,16,08,23.80
2008,08,13,16,09,23.80
2008,08,13,16,10,23.70
2008,08,13,16,11,23.50
2008,08,13,16,12,23.30
2008,08,13,16,13,23.20
2008,08,13,16,14,23.20
2008,08,13,16,15,23.20
2008,08,13,16,16,23.10
2008,08,13,16,17,23.10
2008,08,13,16,18,23.10
2008,08,13,16,19,23.10
2008,08,13,16,20,23.00
2008,08,13,16,21,22.90
2008,08,13,16,22,22.90
2008,08,13,16,23,23.00
2008,08,13,16,24,23.10
2008,08,13,16,25,23.00
2008,08,13,16,26,22.90
2008,08,13,16,27,22.90
2008,08,13,16,28,23.10
2008,08,13,16,29,23.10
2008,08,13,16,30,23.10
2008,08,13,16,31,23.20
2008,08,13,16,32,23.30
2008,08,13,16,33,23.30
2008,08,13,16,34,23.30
2008,08,13,16,35,23.40
2008,08,13,16,36,23.40
2008,08,13,16,37,23.30
2008,08,13,16,38,23.20
2008,08,13,16,39,23.20
2008,08,13,16,40,23.20
2008,08,13,16,41,23.30
2008,08,13,16,42,23.30
2008,08,13,16,43,23.30
2008,08,13,16,44,23.30
2008,08,13,16,45,23.30
2008,08,13,16,46,23.30
2008,08,13,16,47,23.30
2008,08,13,16,48,23.30
2008,08,13,16,49,23.30
2008,08,13,16,50,23.30
2008,08,13,16,51,23.30
2008,08,13,16,52,23.30
2008,08,13,16,53,23.20
2008,08,13,16,54,23.20
2008,08,13,16,55,23.30
2008,08,13,16,56,23.30
2008,08,13,16,57,23.30
2008,08,13,16,58,23.30
2008,08,13,16,59,23.30
2008,08,13,17,00,23.30
2008,08,13,17,01,23.30
2008,08,13,17,02,23.30
2008,08,13,17,03,23.30
2008,08,13,17,04,23.30
2008,08,13,17,05,23.30
2008,08,13,17,06,23.60
2008,08,13,17,07,23.70
2008,08,13,17,08,23.70
2008,08,13,17,09,23.70
2008,08,13,17,10,23.70
2008,08,13,17,11,23.80
2008,08,13,17,12,23.80
2008,08,13,17,13,23.80
2008,08,13,17,14,23.80
2008,08,13,17,15,23.80
2008,08,13,17,16,23.70
2008,08,13,17,17,23.70
2008,08,13,17,18,23.70
2008,08,13,17,19,23.70
2008,08,13,17,20,23.70
2008,08,13,17,21,23.80
2008,08,13,17,22,23.70
2008,08,13,17,23,23.70
2008,08,13,17,24,23.70
2008,08,13,17,25,23.70
2008,08,13,17,26,23.70
2008,08,13,17,27,23.70
2008,08,13,17,28,23.70
2008,08,13,17,29,23.70
2008,08,13,17,30,23.70
2008,08,13,17,31,23.80
2008,08,13,17,32,23.80
2008,08,13,17,33,23.80
2008,08,13,17,34,23.80
2008,08,13,17,35,23.70
2008,08,13,17,36,23.70
2008,08,13,17,37,23.80
2008,08,13,17,38,23.80
2008,08,13,17,39,23.80
2008,08,13,17,40,23.80
2008,08,13,17,41,23.80
2008,08,13,17,42,23.80
2008,08,13,17,43,23.80
2008,08,13,17,44,23.90
2008,08,13,17,45,23.90
2008,08,13,17,46,23.90
2008,08,13,17,47,23.70
2008,08,13,17,48,23.80
2008,08,13,17,49,23.90
2008,08,13,17,50,24.00
2008,08,13,17,51,24.10
2008,08,13,17,52,24.10
2008,08,13,17,53,24.10
2008,08,13,17,54,24.10
2008,08,13,17,55,24.10
2008,08,13,17,56,24.10
2008,08,13,17,57,24.10
2008,08,13,17,58,24.10
2008,08,13,17,59,24.10
2008,08,13,18,00,24.10
2008,08,13,18,01,24.10
2008,08,13,18,02,24.10
2008,08,13,18,03,24.10
2008,08,13,18,04,24.10
2008,08,13,18,05,24.10
2008,08,13,18,06,24.10
2008,08,13,18,07,24.10
2008,08,13,18,08,24.10
2008,08,13,18,09,24.00
2008,08,13,18,10,23.90
2008,08,13,18,11,23.80
2008,08,13,18,12,23.70
2008,08,13,18,13,23.70
2008,08,13,18,14,23.70
2008,08,13,18,15,23.90
2008,08,13,18,16,23.90
2008,08,13,18,17,23.80
2008,08,13,18,18,23.70
2008,08,13,18,19,23.70
2008,08,13,18,20,23.60
2008,08,13,18,21,23.40
2008,08,13,18,22,23.40